Simultaneous Nadir Overpasses (SNOs) Predictions

Prediction of SNOs over PacNW region [( 10.00, 139.50) to ( 22.70, 165.60)] between AQUA and NPP Satellites:

Table of predicted SNOs over PacNW region for the next 30.0 days since TLE Epoch: 4/8/2023
Index Date (AQUA) Time (AQUA) AQUA Lat,Lon Date (NPP) Time (NPP) NPP Lat,Lon Distance(km) Time Diff (sec)
1 04/14/2023 16:19:22 22.63, 145.37 04/14/2023 16:22:51 24.70, 140.25 569.93 209
2 04/17/2023 03:00:19 22.64, 158.24 04/17/2023 02:57:49 21.79, 153.96 450.30 150
3 04/27/2023 15:37:37 22.58, 155.93 04/27/2023 15:38:49 23.71, 151.13 506.79 72
4 04/30/2023 03:57:17 22.67, 144.12 04/30/2023 03:54:59 21.79, 139.72 463.35 138
